Вернуться в каталог

ONEWEB-0327

АктивенСвязьPO
NORAD 49196·PAYLOAD·🇬🇧 United Kingdom

Запущен Sep 14, 2021 с Baikonur Cosmodrome

Loading…

Ближайшие Пролёты (ближайшие 24 часа)

TLE

СвежийSource: CelesTrak SupGP

Эпоха: Sep 14, 2026, 20:21 UTC

1 49196C 21083L   26257.84845324 -.00001431  00000+0 -36346-2 0  2574
2 49196  87.9165 317.6428 0002328 102.6873 299.1512 13.18689301    10

Отслеживайте ONEWEB-0327 в реальном времени с AllMySat

Download on the App Store